Location: Mohawk View
(42.7837°N, 73.7885°W)
Time: 08:31:03
(UTC+00:00)

USA 307 - Pass Details

Date: 17 June 2021
Orbit: 565 x 576 km, 54.0° (Epoch: 17 July)

Event Time Altitude Azimuth Distance (km) Brightness Sun altitude
Exits shadow 08:34:05 - 257° (WSW) 2,211 5.4 -7.0°
Reaches altitude 10° 08:35:01 10° 261° (W) 1,864 5.0 -6.9°
Maximum altitude 08:39:00 40° 331° (NNW) 847 3.9 -6.3°
Drops below altitude 10° 08:43:01 10° 42° (NE) 1,866 7.3 -5.7°
Sets 08:45:23 0° 50° (NE) 2,764 9.5 -5.4°
